Back to catalog

CZ-6A DEB

AlivePO
NORAD 60774·DEBRIS·🇨🇳 China

Launched Aug 6, 2024 from Taiyuan Satellite Launch Center

Loading…

Next Passes (next 24 hours)

TLE

FreshSource: Space-Track

Epoch: Sep 14, 2026, 01:01 UTC

1 60774U 24140EZ  26257.04245926  .00104164  00000-0  32967-2 0  9994
2 60774  89.2936 286.5971 0045685 103.0129 257.6229 15.31331589113563

Track CZ-6A DEB in real time with AllMySat

Download on the App Store